Location: ????????
(55.0097°N, 38.5678°E)
Time: 20:57:17
(UTC+00:00)

ARIANE 6 FM1 Upper Stage - Visible Passes

Search period start: 16 December 2025 00:00
Search period end: 26 December 2025 00:00
Orbit: 522 x 611 km, 62.0° (Epoch: 15 December)

Date Brightness Start Highest point End Pass type
(mag) Time Alt. Az. Time Alt. Az. Time Alt. Az.
16 Dec 4.9 03:23:09 10° S 03:26:26 24° SE 03:29:41 10° ENE visible
16 Dec 2.5 05:01:08 10° WSW 05:05:09 75° NNW 05:09:08 10° NE visible
17 Dec 4.3 03:23:06 10° SSW 03:26:43 32° SE 03:30:17 10° ENE visible
17 Dec 2.6 05:01:38 10° WSW 05:05:36 60° NNW 05:09:31 10° NE visible
18 Dec 3.7 03:23:12 10° SSW 03:27:01 43° SE 03:30:48 10° ENE visible
18 Dec 2.8 05:02:09 10° WSW 05:06:03 50° NNW 05:09:55 10° NE visible
19 Dec 5.6 01:47:54 10° SE 01:49:05 11° ESE 01:50:27 10° E visible
19 Dec 3.1 03:24:00 14° SW 03:27:21 58° SE 03:31:16 10° ENE visible
20 Dec 5.3 01:49:21 16° ESE 01:49:21 16° ESE 01:51:43 10° E visible
20 Dec 2.6 03:25:26 24° SW 03:27:42 76° SE 03:31:41 10° NE visible
21 Dec 5.1 01:50:31 19° ESE 01:50:31 19° ESE 01:52:31 10° ENE visible
21 Dec 2.4 03:26:34 37° WSW 03:28:06 84° NW 03:32:05 10° NE visible
22 Dec 5.1 01:51:26 20° E 01:51:26 20° E 01:53:09 10° ENE visible
22 Dec 2.5 03:27:30 46° W 03:28:31 67° NNW 03:32:28 10° NE visible
23 Dec 5.1 01:52:13 20° ENE 01:52:13 20° ENE 01:53:40 10° ENE visible
23 Dec 2.7 03:28:16 48° WNW 03:28:56 54° NNW 03:32:51 10° NE visible
24 Dec 5.1 01:52:53 19° ENE 01:52:53 19° ENE 01:54:08 10° ENE visible
24 Dec 2.9 03:28:55 43° NW 03:29:23 46° NNW 03:33:13 10° NE visible
25 Dec 5.2 01:53:28 18° ENE 01:53:28 18° ENE 01:54:32 10° ENE visible
25 Dec 3.1 03:29:29 38° NW 03:29:51 39° NNW 03:33:36 10° NE visible
